This is the latest recevied weather packets stored in our database for station/object WY7ATH-2. If no packets are shown the sender has not sent any weather packets the latest 10 day(s).
| Time | Temp. | Humidity | Pressure | Rain* | Wind** | Luminosity | Snow |
|---|---|---|---|---|---|---|---|
| 1788638046 | 29.44° C | - | - | 20.32 mm | 0 m/s | - | - |
| 1788637449 | 30° C | - | - | 20.32 mm | 0 m/s | - | - |
| 1788635657 | 27.78° C | - | - | 20.32 mm | 0 m/s | - | - |
| 1788633862 | 28.89° C | - | - | 21.59 mm | 2.68 m/s, 97° | - | - |
| 1788633265 | 28.33° C | - | - | 21.59 mm | 2.24 m/s, 35° | - | - |
| 1788632668 | 30.56° C | - | - | 21.59 mm | 4.47 m/s, 359° | - | - |
| 1788632071 | 29.44° C | - | - | 21.59 mm | 1.34 m/s, 0° | - | - |
| 1788631477 | 31.11° C | - | - | 21.59 mm | 2.68 m/s, 349° | - | - |
| 1788630874 | 28.33° C | - | - | 23.37 mm | 0.89 m/s, 24° | - | - |
| 1788629082 | 33.33° C | - | - | 23.37 mm | 1.34 m/s, 305° | - | - |
| 1788628485 | 30.56° C | - | - | 23.37 mm | 0 m/s | - | - |
| 1788627288 | 33.89° C | - | - | 21.34 mm | 0 m/s | - | - |
| 1788626692 | 31.67° C | - | - | 21.34 mm | 5.81 m/s, 284° | - | - |
| 1788626094 | 30.56° C | - | - | 21.34 mm | 4.92 m/s, 263° | - | - |
| 1788625497 | 30.56° C | - | - | 21.34 mm | 4.92 m/s, 274° | - | - |
| 1788624304 | 30.56° C | - | - | 21.34 mm | 5.81 m/s, 291° | - | - |
| 1788623703 | 30° C | - | - | 17.53 mm | 5.81 m/s, 333° | - | - |
| 1788622509 | 28.33° C | - | - | 17.53 mm | 6.71 m/s, 277° | - | - |
| 1788621911 | 28.33° C | - | - | 17.53 mm | 6.26 m/s, 270° | - | - |
| 1788620717 | 29.44° C | - | - | 17.53 mm | 0 m/s | - | - |
| 1788620116 | 28.89° C | - | - | 10.92 mm | 4.47 m/s, 0° | - | - |
| 1788618923 | 26.67° C | - | - | 10.92 mm | 4.47 m/s, 281° | - | - |
| 1788617131 | 26.11° C | - | - | 10.92 mm | 3.13 m/s, 278° | - | - |
| 1788616531 | 24.44° C | - | - | 0.76 mm | 4.02 m/s, 359° | - | - |
| 1788615338 | 23.33° C | - | - | 0.76 mm | 0 m/s | - | - |
* Rain latest hour (hover to see other rain measurements)
** Current wind speed in m/s (hover to see current wind gust speed)